TimeEDT,TemperatureF,Dew PointF,Humidity,Sea Level PressureIn,VisibilityMPH,Wind Direction,Wind SpeedMPH,Gust SpeedMPH,PrecipitationIn,Events,Conditions,WindDirDegrees,DateUTC
12:51 AM,48.0,41.0,77,30.24,10.0,East,5.8,-,N/A,,Partly Cloudy,90,2013-05-06 04:51:00
1:51 AM,48.0,42.1,80,30.23,10.0,ESE,6.9,-,N/A,,Scattered Clouds,110,2013-05-06 05:51:00
2:09 AM,48.2,42.8,82,30.23,10.0,East,5.8,-,N/A,,Mostly Cloudy,100,2013-05-06 06:09:00
2:51 AM,48.0,41.0,77,30.22,10.0,ENE,3.5,-,N/A,,Mostly Cloudy,70,2013-05-06 06:51:00
3:51 AM,46.9,41.0,80,30.22,10.0,East,5.8,-,N/A,,Mostly Cloudy,80,2013-05-06 07:51:00
4:51 AM,46.9,41.0,80,30.23,10.0,East,6.9,-,N/A,,Mostly Cloudy,80,2013-05-06 08:51:00
5:51 AM,48.0,43.0,83,30.23,10.0,ENE,6.9,-,N/A,,Overcast,60,2013-05-06 09:51:00
5:58 AM,48.2,42.8,82,30.24,10.0,NE,6.9,-,N/A,,Overcast,50,2013-05-06 09:58:00
6:09 AM,48.2,42.8,82,30.24,9.0,ENE,4.6,-,N/A,,Overcast,70,2013-05-06 10:09:00
6:44 AM,48.2,42.8,82,30.25,9.0,East,8.1,-,N/A,,Overcast,90,2013-05-06 10:44:00
6:51 AM,48.9,43.0,80,30.25,9.0,East,5.8,-,N/A,,Overcast,80,2013-05-06 10:51:00
7:23 AM,50.0,42.8,76,30.26,10.0,ENE,9.2,-,N/A,,Overcast,60,2013-05-06 11:23:00
7:44 AM,50.0,42.8,76,30.26,10.0,NE,9.2,-,N/A,,Mostly Cloudy,50,2013-05-06 11:44:00
7:51 AM,50.0,43.0,77,30.26,10.0,ENE,8.1,-,N/A,,Mostly Cloudy,60,2013-05-06 11:51:00
8:27 AM,51.8,42.8,71,30.27,10.0,NE,9.2,-,N/A,,Overcast,50,2013-05-06 12:27:00
8:51 AM,51.1,44.1,77,30.27,10.0,NE,8.1,-,N/A,,Overcast,50,2013-05-06 12:51:00
9:51 AM,53.1,44.1,71,30.27,10.0,NE,8.1,-,N/A,,Mostly Cloudy,40,2013-05-06 13:51:00
10:51 AM,54.0,44.1,69,30.27,10.0,NE,10.4,-,N/A,,Mostly Cloudy,50,2013-05-06 14:51:00
11:51 AM,57.9,44.1,60,30.25,10.0,NE,8.1,-,N/A,,Mostly Cloudy,40,2013-05-06 15:51:00
12:10 PM,59.0,44.6,59,30.25,10.0,NE,5.8,-,N/A,,Scattered Clouds,40,2013-05-06 16:10:00
12:51 PM,61.0,45.0,56,30.23,10.0,NE,5.8,-,N/A,,Scattered Clouds,40,2013-05-06 16:51:00
1:08 PM,60.8,44.6,55,30.22,10.0,NE,6.9,-,N/A,,Mostly Cloudy,40,2013-05-06 17:08:00
1:51 PM,62.1,46.0,56,30.21,10.0,NE,8.1,-,N/A,,Mostly Cloudy,50,2013-05-06 17:51:00
1:58 PM,64.4,46.4,52,30.21,10.0,NE,9.2,19.6,N/A,,Partly Cloudy,40,2013-05-06 17:58:00
2:29 PM,62.6,46.4,55,30.20,10.0,NE,10.4,-,N/A,,Mostly Cloudy,40,2013-05-06 18:29:00
2:51 PM,64.0,46.0,52,30.19,10.0,NE,10.4,-,N/A,,Mostly Cloudy,50,2013-05-06 18:51:00
3:22 PM,66.2,46.4,49,30.18,10.0,NE,9.2,-,N/A,,Scattered Clouds,50,2013-05-06 19:22:00
3:51 PM,66.9,48.9,52,30.17,10.0,South,11.5,-,N/A,,Mostly Cloudy,170,2013-05-06 19:51:00
4:51 PM,64.9,48.0,54,30.16,10.0,South,10.4,17.3,N/A,,Mostly Cloudy,190,2013-05-06 20:51:00
5:06 PM,66.2,48.2,52,30.16,10.0,South,12.7,-,N/A,,Mostly Cloudy,170,2013-05-06 21:06:00
5:47 PM,64.4,48.2,56,30.16,10.0,SE,8.1,-,N/A,,Scattered Clouds,140,2013-05-06 21:47:00
5:51 PM,64.9,48.0,54,30.16,10.0,SSE,10.4,-,N/A,,Partly Cloudy,160,2013-05-06 21:51:00
6:51 PM,63.0,46.9,56,30.16,10.0,South,8.1,-,N/A,,Scattered Clouds,180,2013-05-06 22:51:00
7:51 PM,61.0,46.9,60,30.16,10.0,SSW,8.1,-,N/A,,Clear,200,2013-05-06 23:51:00
8:51 PM,59.0,46.9,64,30.18,10.0,SSW,6.9,-,N/A,,Scattered Clouds,200,2013-05-07 00:51:00
9:51 PM,57.0,46.9,69,30.19,10.0,SSW,4.6,-,N/A,,Scattered Clouds,210,2013-05-07 01:51:00
10:51 PM,57.0,46.0,67,30.17,10.0,SSE,3.5,-,N/A,,Partly Cloudy,160,2013-05-07 02:51:00
11:51 PM,55.9,46.0,69,30.17,10.0,East,3.5,-,N/A,,Partly Cloudy,90,2013-05-07 03:51:00